ニオワイズ彗星

417P/NEOWISE (2021)

English version
Home page
Updated on June 14, 2021

---------------------------------------------------------------------

・ プロフィール

符号 417P/2021 B1
検出日 2021年1月17日
検出光度 20.4等
検出者 E. Schwab (Egelsbach, Germany)

・ 写真集

・ 軌道要素

Epoch 2021 Apr. 16.0 TT = JDT 2459320.5
T 2021 Apr. 22.17302 TT                                 Rudenko
q   1.4920110            (2000.0)            P               Q
n   0.16090660     Peri.  129.45756     -0.48049905     +0.86704553
a   3.3477535      Node   111.35108     -0.84180353     -0.41386189
e   0.5543247      Incl.    8.13100     -0.24594203     -0.27739931
P   6.13
From 134 observations 2015 May 15-2021 Apr. 20, mean residual 0".6.

・ 星図

・ 光度変化

        m1 = 17.0 + 5 logΔ + 10.0 log r

---------------------------------------------------------------------

軌道要素はM.P.E.C. 2021-J28に掲載されたものです。
星図はステラナビゲータ Ver.10 (アストロアーツ) で作成したものです。
光度グラフはComet for Windowsで作成したものです。

---------------------------------------------------------------------

Copyright(C) Seiichi Yoshida (comet@aerith.net). All rights reserved.